Content
SEND FEEDBACK

Daily
Averages
Monthly
Summary
United States of America

UMATAC, GUAM


Home > North America > United States > Guam
Elevation: 190 feet     Latitude: 13 17N     Longitude: 144 40E

WEATHER
 
SELECT A DAY
Number of Records: 341,631;   Date Range: 1/1/95 - 7/20/14
 
SHARE

PRINT THIS DATA

[ ← Previous Day ]
WEATHER ALMANAC - FEBRUARY 23, 2014
[ Next Day → ]
[ °C ]   °F
Weather ElementAverageHighLow
Temperature76 °F83.1 °F (12:58 pm)71.6 °F (4:58 am)
Dewpoint71.8 °F76.3 °F (10:58 pm) (7:00 pm)
Humidity92.9 %100 % (12:18 am)74 % (1:58 pm)
Barometer29.84 in29.90 in (9:47 pm)29.78 in (2:58 pm)
Wind Speed14.8 mph26.5 mph (4:15 am)
Wind Gust35.7 mph (4:15 am)
Weather ElementAverage
Visibility7.9 mi
Wind DirectionENE (70.3 °)

Weather ElementTotal
Precipitation1.10 in
Cooling Degree Days12.4 (Base 65)
Growing Degree Days27.4 (Base 50)
Averaged from 78 records on February 23, 2014
WEATHER CONDITIONS BREAKOUT
WIND DIRECTION BREAKOUT
WEATHER BY HOUR - FEBRUARY 23, 2014
[ °C ]   °F
Local TimeTemperatureDewpointHumidityBarometerVisibilityWind DirectionWind SpeedGust SpeedPrecipitationEventsConditions
12:13 AM77.0 °F75.2 °F94 %29.87 in10.0 miENE (70°)13.8 mphOvercast
12:18 AM75.2 °F75.2 °F100 %29.87 in10.0 miEast (80°)8.1 mph20.7 mphOvercast
12:27 AM75.2 °F75.2 °F100 %29.87 in10.0 miESE (120°)15.0 mph20.7 mphRainLight Rain
12:37 AM73.4 °F73.4 °F100 %29.87 in2.5 miESE (110°)10.4 mph21.9 mphRainHeavy Rain
12:42 AM73.4 °F73.4 °F100 %29.87 in2.0 miEast (100°)10.4 mph19.6 mphRainRain
12:47 AM73.4 °F73.4 °F100 %29.86 in3.0 miESE (120°)10.4 mphRainLight Rain
12:56 AM73.4 °F73.4 °F100 %29.86 in4.0 miSE (130°)8.1 mphHaze
12:58 AM73.4 °F73.4 °F100 %29.83 in5.0 miSE (130°)8.1 mph0.12 inHaze
1:13 AM75.2 °F73.4 °F94 %29.86 in10.0 miEast (80°)8.1 mphOvercast
1:28 AM75.2 °F73.4 °F94 %29.85 in10.0 miEast (80°)11.5 mphMostly Cloudy
1:33 AM75.2 °F73.4 °F94 %29.85 in10.0 miEast (80°)10.4 mphScattered Clouds
1:58 AM75.2 °F73.4 °F94 %29.81 in10.0 miENE (60°)10.4 mphMostly Cloudy
2:03 AM75.2 °F73.4 °F94 %29.84 in10.0 miNE (50°)20.7 mph24.2 mphMostly Cloudy
2:07 AM75.2 °F73.4 °F94 %29.84 in10.0 miENE (60°)16.1 mph25.3 mphLight Drizzle
2:12 AM75.2 °F73.4 °F94 %29.84 in5.0 miENE (70°)15.0 mph25.3 mphRainLight Rain
2:17 AM73.4 °F73.4 °F100 %29.84 in3.0 miNE (50°)15.0 mph23.0 mphRainHeavy Rain
2:22 AM73.4 °F73.4 °F100 %29.84 in4.0 miNE (50°)15.0 mph23.0 mphRainLight Rain
2:32 AM73.4 °F73.4 °F100 %29.84 in9.0 miNE (50°)17.3 mph23.0 mphRainLight Rain
2:42 AM75.2 °F73.4 °F94 %29.84 in6.0 miENE (60°)12.7 mph24.2 mphRainLight Rain
2:47 AM73.4 °F73.4 °F100 %29.84 in7.0 miNE (50°)12.7 mph23.0 mphRainLight Rain
2:52 AM73.4 °F73.4 °F100 %29.84 in9.0 miNE (50°)12.7 mphLight Drizzle
2:57 AM73.4 °F73.4 °F100 %29.84 in10.0 miNE (40°)13.8 mphLight Drizzle
2:58 AM73.4 °F0.0 °F29.81 in10.0 miNE (40°)13.8 mph0.10 inLight Drizzle
2:59 AM73.4 °F73.4 °F100 %29.84 in10.0 miNE (40°)12.7 mphMostly Cloudy
3:06 AM73.4 °F73.4 °F100 %29.84 in8.0 miNE (50°)20.7 mph29.9 mphRainLight Rain
3:16 AM73.4 °F73.4 °F100 %29.84 in7.0 miNE (50°)20.7 mph26.5 mphRainLight Rain
3:21 AM73.4 °F0.0 °F29.84 in5.0 miNE (50°)20.7 mph29.9 mphRainLight Rain
3:26 AM73.4 °F73.4 °F100 %29.84 in3.0 miNE (50°)19.6 mph29.9 mphRainRain
3:31 AM73.4 °F73.4 °F100 %29.84 in3.0 miENE (60°)15.0 mph29.9 mphRainHeavy Rain
3:56 AM75.2 °F73.4 °F94 %29.83 in6.0 miENE (60°)11.5 mph21.9 mphRainLight Rain
3:58 AM75.2 °F73.4 °F94 %29.81 in6.0 miENE (60°)12.7 mph21.9 mph0.22 inRainLight Rain
4:02 AM75.2 °F73.4 °F94 %29.83 in10.0 miENE (70°)12.7 mphMostly Cloudy
4:07 AM75.2 °F73.4 °F94 %29.82 in10.0 miEast (100°)16.1 mph21.9 mphMostly Cloudy
4:08 AM75.2 °F73.4 °F94 %29.82 in10.0 miEast (100°)16.1 mph21.9 mphMostly Cloudy
4:10 AM75.2 °F73.4 °F94 %29.82 in10.0 miEast (100°)13.8 mph21.9 mphLight Drizzle
4:15 AM75.2 °F73.4 °F94 %29.83 in2.5 miENE (70°)26.5 mph35.7 mphRainHeavy Rain
4:29 AM73.4 °F73.4 °F100 %29.84 in1.2 miENE (60°)18.4 mph29.9 mphRainHeavy Rain
4:34 AM73.4 °F73.4 °F100 %29.84 in2.0 miENE (60°)21.9 mph29.9 mphRainRain
4:44 AM73.4 °F73.4 °F100 %29.84 in1.8 miENE (70°)23.0 mph32.2 mphRainHeavy Rain
4:49 AM73.4 °F73.4 °F100 %29.84 in1.2 miEast (90°)21.9 mph32.2 mphRainHeavy Rain
4:54 AM73.4 °F73.4 °F100 %29.84 in1.8 miEast (90°)19.6 mph28.8 mphRainLight Rain
4:58 AM71.6 °F71.6 °F100 %29.81 in4.0 miEast (90°)18.4 mph28.8 mph0.60 inRainLight Rain
5:03 AM71.6 °F71.6 °F100 %29.84 in5.0 miEast (90°)16.1 mph23.0 mphRainLight Rain
5:13 AM71.6 °F71.6 °F100 %29.84 in9.0 miEast (100°)11.5 mphRainLight Rain
5:23 AM73.4 °F73.4 °F100 %29.84 in10.0 miEast (100°)11.5 mphRainLight Rain
5:27 AM73.4 °F73.4 °F100 %29.84 in10.0 miEast (100°)12.7 mph18.4 mphScattered Clouds
5:54 AM73.4 °F73.4 °F100 %29.85 in9.0 miEast (90°)18.4 mph26.5 mphRainLight Rain
5:58 AM73.4 °F71.6 °F94 %29.83 in6.0 miEast (90°)16.1 mph25.3 mph0.01 inRainLight Rain
6:23 AM73.4 °F71.6 °F94 %29.86 in5.0 miEast (90°)11.5 mph24.2 mphRainLight Rain
6:46 AM75.2 °F73.4 °F94 %29.86 in10.0 miEast (90°)10.4 mphMostly Cloudy
6:58 AM75.4 °F73.0 °F92 %29.83 in10.0 miEast (80°)15.0 mph0.05 inMostly Cloudy
7:58 AM76.1 °F72.7 °F89 %29.86 in10.0 miENE (60°)15.0 mphPartly Cloudy
8:58 AM78.4 °F73.9 °F86 %29.86 in10.0 miEast (80°)15.0 mphMostly Cloudy
9:58 AM80.1 °F75.0 °F85 %29.87 in10.0 miEast (80°)12.7 mphScattered Clouds
10:58 AM81.3 °F74.1 °F79 %29.86 in10.0 miEast (80°)17.3 mphScattered Clouds
11:58 AM82.8 °F74.5 °F76 %29.83 in10.0 miENE (70°)16.1 mphPartly Cloudy
12:58 PM83.1 °F75.0 °F76 %29.81 in10.0 miENE (60°)16.1 mph24.2 mphPartly Cloudy
1:58 PM82.9 °F73.8 °F74 %29.81 in10.0 miENE (60°)15.0 mphPartly Cloudy
2:43 PM82.4 °F73.4 °F74 %29.82 in10.0 miNE (50°)17.3 mph20.7 mphMostly Cloudy
2:53 PM82.4 °F75.2 °F79 %29.81 in10.0 miENE (60°)13.8 mph19.6 mphScattered Clouds
2:58 PM82.2 °F74.3 °F77 %29.78 in10.0 miENE (60°)17.3 mph23.0 mphScattered Clouds
3:58 PM82.0 °F74.3 °F77 %29.78 in10.0 miNE (50°)15.0 mphPartly Cloudy
4:53 PM80.6 °F73.4 °F79 %29.83 in10.0 miNE (50°)15.0 mphMostly Cloudy
4:58 PM81.0 °F74.1 °F80 %29.81 in10.0 miNE (50°)15.0 mphMostly Cloudy
5:08 PM80.6 °F73.4 °F79 %29.83 in10.0 miNE (50°)15.0 mphMostly Cloudy
5:13 PM80.6 °F73.4 °F79 %29.83 in10.0 miNE (50°)17.3 mphMostly Cloudy
5:28 PM80.6 °F75.2 °F84 %29.83 in10.0 miNE (50°)17.3 mph21.9 mphScattered Clouds
5:38 PM80.6 °F75.2 °F84 %29.84 in10.0 miNE (50°)15.0 mphMostly Cloudy
5:58 PM79.7 °F73.8 °F82 %29.82 in10.0 miENE (60°)15.0 mph23.0 mphMostly Cloudy
6:33 PM77.0 °F75.2 °F94 %29.85 in10.0 miENE (60°)17.3 mphScattered Clouds
6:58 PM77.0 °F73.2 °F88 %29.83 in10.0 miENE (60°)12.7 mphPartly Cloudy
7:58 PM77.5 °F74.1 °F89 %29.86 in10.0 miENE (60°)13.8 mph20.7 mphMostly Cloudy
8:58 PM77.4 °F74.3 °F90 %29.87 in10.0 miENE (70°)9.2 mphMostly Cloudy
9:47 PM77.0 °F75.2 °F94 %29.90 in9.0 miENE (60°)15.0 mph25.3 mphRainLight Rain
9:58 PM76.5 °F75.9 °F98 %29.86 in9.0 miENE (60°)12.7 mph0.00 inRainLight Rain
9:59 PM75.2 °F75.2 °F100 %29.89 in10.0 miENE (60°)10.4 mphScattered Clouds
10:58 PM76.6 °F76.3 °F99 %29.86 in10.0 miNE (40°)11.5 mph0.00 inPartly Cloudy
11:58 PM77.4 °F74.3 °F90 %29.86 in10.0 miENE (60°)13.8 mphScattered Clouds
Hourly data recorded from PGUA, located miles away from Umatac, Guam







STORIES FROM OUR PARTNERS